Weather in Namche Bazaar

Nepal     27°59′51″N   86°36′32″E
temp.,
°C
wind,
m/s
gust,
m/s
humid.,
%
clouds,
%
prec.,
mm/h
press.,
hPa
HPBL,
m
10 may, mon
mon1023:45−5wsw127512 0.0 1019238
02:45−6sw117210 0.0 1018255
05:45−6wsw017522 0.0 1019221
08:45−3sw325410 0.0 1017776
11:45−1sw436477 0.6 10151188
14:45−2sw447569 1.6 1015967
17:45−3sw327462 1.8 1015704
20:45−5wsw127794 0.0 1019310
11 may, tue
tue1123:45−6w118160 0.0 1020339
02:45−6nw118278 0.0 1018250
05:45−6nw118162 0.1 1018330
08:45−3wsw216666 0.0 1017749
11:45−2sw437883 0.8 1015695
14:45−2sw4490100 2.9 1013554
17:45−4w228591 4.3 1014428
20:45−4sw1276100 0.0 1015124
12 may, wed
wed1223:45−5wsw1191100 0.0 1017220
02:45−5wsw0088100 0.1 1015246
05:45−5wsw1189100 0.3 1016219
08:45−3sw328596 0.3 1015580
11:45−2sw4389100 1.8 1013563
14:45−3sw449097 1.9 1013496
17:45−4sw338498 2.2 1014557
20:45−4w018541 0.3 1016230
13 may, thu
thu1323:45−6n018977 0.3 1016160
02:45−5sw3394100 0.5 1015256
05:45−6e1189100 0.9 1017226
08:45−4ssw3384100 0.1 1016580
11:45−2sw5499100 4.0 1013351
14:45−3sw4498100 2.6 1013353
17:45−5ssw118858 3.1 1014314
20:45−6sw1292100 0.0 1017149
14 may, fri
fri1423:45−6ssw1190100 0.1 1016157
02:45−6ssw2296100 1.0 1014250
05:45−6sw2296100 2.6 1014210
08:45−5sw329188 0.3 1016480
11:45−4sw338373 0.4 1015765
14:45−3sw4391100 0.7 1013558
17:45−4sw229071 1.6 1014357
20:45−5sw2296100 0.6 1016215